This demonstration page uses our WeatherBlox Daily Observations layout. Learn more.

Left ArrowRight Arrow

Hourly Observations for July 10, 2019

Temp ( °F °C ) Dew Point ( °F °C ) Humidity (%) Winds ( mph kmh ) Pressure ( in mb ) Visibility ( mi km ) Precip ( " mm )
12:53 am 00:53 Clear 72 22.2 69 20.6 91 91 N N/A 30.00 1016 10 16 N/A
1:53 am 01:53 Clear 71 21.7 69 20.6 94 94 N N/A 30.00 1016 10 16 N/A
2:53 am 02:53 Clear 70 21.1 68 20 93 93 N N/A 29.98 1015 8 13 N/A
3:53 am 03:53 Clear 69 20.6 68 20 96 96 N N/A 29.99 1016 7 11 N/A
4:53 am 04:53 Clear 69 20.6 68 20 96 96 N N/A 29.99 1016 9 14 N/A
5:53 am 05:53 Clear 69 20.6 68 20 96 96 N N/A 29.99 1016 7 11 N/A
6:53 am 06:53 Sunny with Mist and Fog 69 20.6 68 20 96 96 N N/A 30.01 1016 6 10 N/A
7:53 am 07:53 Sunny 74 23.3 70 21.1 88 88 N N/A 30.01 1016 7 11 N/A
8:53 am 08:53 Sunny 78 25.6 71 21.7 79 79 N N/A 30.01 1016 10 16 N/A
9:53 am 09:53 Sunny 84 28.9 72 22.2 67 67 N N/A 30.02 1017 10 16 N/A
10:53 am 10:53 Sunny 86 30 71 21.7 61 61 N N/A 30.01 1016 10 16 N/A
11:53 am 11:53 Partly Cloudy 89 31.7 70 21.1 53 53 WSW 5 7 30.00 1016 10 16 N/A
12:53 pm 12:53 Mostly Cloudy 87 30.6 67 19.4 51 51 W 6 9 30.01 1016 10 16 N/A
1:53 pm 13:53 Cloudy 81 27.2 74 23.3 79 79 NW 6 9 30.01 1016 10 16 N/A
2:53 pm 14:53 Mostly Cloudy 86 30 72 22.2 63 63 N N/A 29.98 1015 10 16 N/A
3:53 pm 15:53 Mostly Sunny 89 31.7 70 21.1 53 53 N N/A 29.96 1015 10 16 N/A
4:53 pm 16:53 Mostly Sunny 90 32.2 72 22.2 56 56 VRB 3 6 29.93 1014 10 16 N/A
5:53 pm 17:53 Mostly Cloudy 89 31.7 72 22.2 57 57 S 3 6 29.92 1013 10 16 N/A
6:53 pm 18:53 Mostly Sunny 90 32.2 72 22.2 56 56 VRB 6 9 29.91 1013 10 16 N/A
7:53 pm 19:53 Sunny 88 31.1 72 22.2 59 59 SSW 5 7 29.91 1013 10 16 N/A
8:53 pm 20:53 Sunny 83 28.3 73 22.8 72 72 SW 3 6 29.91 1013 10 16 N/A
9:53 pm 21:53 Clear 78 25.6 74 23.3 87 87 N N/A 29.93 1014 10 16 N/A
10:53 pm 22:53 Mostly Cloudy 81 27.2 73 22.8 77 77 WNW 8 13 29.94 1014 10 16 N/A
11:53 pm 23:53 Mostly Cloudy 78 25.6 67 19.4 69 69 NW 10 17 29.94 1014 10 16 N/A

Powered by AerisWeather